This demonstration page uses our WeatherBlox Daily Observations layout. Learn more.

Left ArrowRight Arrow

Hourly Observations for April 23, 2019

Temp ( °F °C ) Dew Point ( °F °C ) Humidity (%) Winds ( mph kmh ) Pressure ( in mb ) Visibility ( mi km ) Precip ( " mm )
12:15 am 00:15 Clear 41 4.8 33 0.7 75 75 WNW 7 11 30.25 1024 10 16 N/A
12:35 am 00:35 Clear 38 3.4 32 0.1 79 79 NW 8 13 30.26 1025 10 16 N/A
12:55 am 00:55 Clear 37 2.8 32 undefined 82 82 WNW 5 7 30.27 1025 10 16 N/A
1:15 am 01:15 Clear 38 3.5 33 0.5 81 81 WNW 7 11 30.26 1025 10 16 N/A
1:35 am 01:35 Clear 38 3.2 33 0.4 82 82 NW 7 11 30.27 1025 10 16 N/A
1:55 am 01:55 Clear 37 2.7 32 undefined 83 83 WNW 6 9 30.27 1025 10 16 N/A
2:15 am 02:15 Clear 37 2.8 32 undefined 82 82 WNW 6 9 30.27 1025 10 16 N/A
2:35 am 02:35 Clear 37 2.7 32 undefined 83 83 WNW 6 9 30.27 1025 10 16 N/A
2:55 am 02:55 Clear 36 2.3 32 -0.1 84 84 WNW 6 9 30.27 1025 10 16 N/A
3:15 am 03:15 Clear 36 2.1 32 undefined 86 86 WNW 5 7 30.28 1025 10 16 N/A
3:35 am 03:35 Clear 34 1.1 30 -1.1 85 85 WNW 7 11 30.28 1025 10 16 N/A
3:55 am 03:55 Clear 35 1.6 31 -0.6 85 85 W 3 6 30.28 1025 10 16 N/A
4:15 am 04:15 Clear 35 1.6 31 -0.5 86 86 WNW 7 11 30.28 1025 10 16 N/A
4:35 am 04:35 Clear 36 2 32 undefined 87 87 NW 7 11 30.27 1025 10 16 N/A
4:55 am 04:55 Clear 35 1.9 31 -0.4 85 85 N N/A 30.28 1025 10 16 N/A
5:15 am 05:15 Clear 34 1.2 30 -1.1 85 85 NW 6 9 30.29 1026 10 16 N/A
5:35 am 05:35 Clear 33 0.3 29 -1.5 88 88 NW 8 13 30.29 1026 10 16 N/A
5:55 am 05:55 Clear 32 0.1 29 -1.7 88 88 N N/A 30.31 1026 10 16 N/A
6:15 am 06:15 Clear 33 0.8 29 -1.5 85 85 NW 6 9 30.29 1026 10 16 N/A
6:35 am 06:35 Clear 33 0.6 29 -1.5 86 86 WNW 5 7 30.29 1026 10 16 N/A
6:55 am 06:55 Sunny 33 0.7 30 -0.9 89 89 W 5 7 30.29 1026 10 16 N/A
7:15 am 07:15 Sunny 33 0.6 30 -1 89 89 WNW 6 9 30.29 1026 10 16 N/A
7:35 am 07:35 Sunny 35 1.6 32 -0.1 89 89 WNW 7 11 30.28 1025 10 16 N/A
7:55 am 07:55 Sunny 36 2.4 32 undefined 84 84 NW 3 6 30.27 1025 7 11 N/A
8:15 am 08:15 Sunny 39 3.9 33 0.8 80 80 WNW 3 6 30.26 1025 10 16 N/A
8:35 am 08:35 Sunny 43 5.9 34 1.3 73 73 N N/A 30.24 1024 10 16 N/A
8:55 am 08:55 Sunny 46 8 34 1.1 62 62 NNE 3 6 30.21 1023 10 16 N/A
9:15 am 09:15 Sunny 49 9.5 36 2.3 61 61 ENE 5 7 30.20 1023 10 16 N/A
9:35 am 09:35 Sunny 51 10.4 39 3.8 64 64 E 6 9 30.19 1022 10 16 N/A
9:55 am 09:55 Sunny 53 11.4 41 5.1 65 65 ESE 3 6 30.18 1022 10 16 N/A
10:15 am 10:15 Sunny 53 11.8 40 4.7 62 62 N N/A 30.18 1022 10 16 N/A
10:35 am 10:35 Sunny 55 12.6 40 4.6 58 58 N N/A 30.18 1022 10 16 N/A
10:55 am 10:55 Sunny 56 13.2 40 4.4 55 55 N N/A 30.17 1022 10 16 N/A
11:15 am 11:15 Sunny 57 13.9 40 4.4 53 53 N N/A 30.16 1021 10 16 N/A
11:35 am 11:35 Sunny 58 14.3 38 3.4 48 48 E 5 7 30.14 1021 10 16 N/A
11:55 am 11:55 Sunny 59 15.1 38 3.2 45 45 E 6 9 30.13 1020 10 16 N/A
12:15 pm 12:15 Sunny 59 15.2 33 0.7 38 38 NE 5 7 30.12 1020 10 16 N/A
12:35 pm 12:35 Sunny 60 15.7 32 0.1 35 35 N N/A 30.10 1019 10 16 N/A
12:55 pm 12:55 Sunny 62 16.5 33 0.7 35 35 ESE 6 9 30.08 1019 10 16 N/A
1:15 pm 13:15 Sunny 62 16.4 32 undefined 33 33 NE 5 7 30.07 1018 10 16 N/A
1:35 pm 13:35 Sunny 63 17.2 33 0.8 33 33 NNE 3 6 30.06 1018 10 16 N/A
1:55 pm 13:55 Sunny 63 17.1 32 0.2 32 32 E 6 9 30.05 1018 10 16 N/A
2:15 pm 14:15 Sunny 64 17.7 33 0.7 32 32 NE 6 9 30.04 1017 10 16 N/A
2:35 pm 14:35 Sunny 64 17.5 33 0.5 32 32 E 5 7 30.03 1017 10 16 N/A
2:55 pm 14:55 Sunny 65 18.3 34 0.9 31 31 SE 8 13 30.03 1017 10 16 N/A
3:15 pm 15:15 Sunny 65 18.2 33 0.5 31 31 NE 6 9 30.01 1016 10 16 N/A
3:35 pm 15:35 Sunny 65 18.5 33 0.3 30 30 ENE 8 13 29.99 1016 10 16 N/A
3:55 pm 15:55 Sunny 65 18.3 32 -0.1 29 29 W 3 6 30.00 1016 10 16 N/A
4:15 pm 16:15 Sunny 66 19 33 0.7 29 29 N N/A 29.98 1015 10 16 N/A
4:35 pm 16:35 Sunny 66 18.7 32 undefined 29 29 ESE 3 6 29.97 1015 10 16 N/A
4:55 pm 16:55 Sunny 65 18.6 32 -0.1 28 28 N N/A 29.95 1014 10 16 N/A
5:15 pm 17:15 Sunny 65 18.6 31 -0.4 28 28 N N/A 29.95 1014 10 16 N/A
5:35 pm 17:35 Sunny 66 19 33 0.3 29 29 ENE 7 11 29.94 1014 10 16 N/A
5:55 pm 17:55 Sunny 66 18.8 32 0.1 29 29 ESE 3 6 29.94 1014 10 16 N/A
6:15 pm 18:15 Sunny 65 18.6 32 -0.1 28 28 N N/A 29.94 1014 10 16 N/A
6:35 pm 18:35 Sunny 66 18.7 33 0.5 30 30 SSE 8 13 29.94 1014 10 16 N/A
6:55 pm 18:55 Sunny 65 18.4 32 -0.1 29 29 SSE 7 11 29.94 1014 10 16 N/A
7:15 pm 19:15 Sunny 64 18 33 0.6 31 31 ESE 6 9 29.94 1014 10 16 N/A
7:35 pm 19:35 Sunny 64 17.5 33 0.8 33 33 SE 5 7 29.93 1014 10 16 N/A
7:55 pm 19:55 Sunny 62 16.6 32 undefined 33 33 SE 5 7 29.94 1014 10 16 N/A
8:15 pm 20:15 Sunny 59 15.1 33 0.3 37 37 SE 5 7 29.94 1014 10 16 N/A
8:35 pm 20:35 Clear 59 15.1 31 -0.5 35 35 SE 5 7 29.94 1014 10 16 N/A
8:55 pm 20:55 Clear 60 15.5 31 -0.7 33 33 SE 5 7 29.94 1014 10 16 N/A
9:15 pm 21:15 Clear 57 14 32 -0.1 38 38 SE 6 9 29.95 1014 10 16 N/A
9:35 pm 21:35 Clear 58 14.5 30 -1.1 34 34 ESE 6 9 29.96 1015 10 16 N/A
9:55 pm 21:55 Clear 56 13.4 31 -0.3 39 39 N N/A 29.97 1015 10 16 N/A
10:15 pm 22:15 Clear 55 12.6 32 undefined 42 42 SE 5 7 29.98 1015 10 16 N/A
10:35 pm 22:35 Clear 52 11.3 32 0.2 47 47 SE 3 6 29.99 1016 10 16 N/A
10:55 pm 22:55 Clear 51 10.6 32 undefined 48 48 SE 5 7 30.00 1016 10 16 N/A
11:15 pm 23:15 Clear 50 9.8 32 undefined 51 51 N N/A 29.99 1016 10 16 N/A
11:35 pm 23:35 Clear 49 9.6 32 -0.1 51 51 SSE 3 6 29.99 1016 10 16 N/A
11:55 pm 23:55 Clear 44 6.8 32 undefined 62 62 N N/A 30.02 1017 10 16 N/A

Powered by AerisWeather